Theta_e
305 307 311 312 316 316 314 313 312 314 313 311 314 314 313 312 313 311 306 304 304 302 298 297 297 296 296 295 295 296 294 293 293 293 293 293 292 291 291 290 289 289 288 287 287 286 287 287 287 287 287 287 287 287 287 286 286 286 286 286 286 286 287 286 287 287 287 287 287 287 287 287 288 288 288 288 288 288 287 287 287 287 287 287 287 287
308 308 317 317 313 311 309 310 310 310 311 310 311 311 310 311 311 309 306 307 306 305 299 296 297 296 296 296 295 295 295 294 294 293 292 292 291 291 290 290 289 288 287 287 286 286 286 286 286 286 285 286 285 285 285 284 284 284 284 284 284 284 284 284 284 284 285 285 285 285 285 285 286 286 286 286 286 286 286 286 286 286 286 286 286 286
314 313 320 315 307 306 308 309 309 309 311 311 311 310 311 313 310 306 306 307 305 304 300 296 297 297 296 296 295 295 295 295 294 292 292 291 290 289 289 289 288 287 287 286 286 285 285 285 285 285 285 284 284 284 284 283 283 282 282 282 282 282 281 281 282 282 283 283 283 284 284 284 284 284 284 284 284 284 285 285 285 285 285 285 285 286
313 314 313 308 305 306 308 309 309 309 311 312 310 309 313 311 307 307 307 304 302 302 300 297 297 297 297 296 295 295 295 293 293 291 291 290 290 289 288 288 287 286 286 285 285 285 284 284 284 284 284 284 284 283 283 283 282 281 280 281 281 281 280 281 281 281 282 282 282 283 283 283 283 283 283 283 283 283 283 283 283 283 284 284 284 284
312 310 304 305 307 307 306 308 309 308 311 316 312 310 313 309 306 309 308 303 301 300 298 299 300 298 298 297 295 295 295 293 291 290 289 289 289 289 288 287 287 286 285 285 285 284 284 284 284 283 283 283 283 282 282 281 281 280 280 280 280 280 281 281 281 281 281 282 282 282 282 282 282 282 282 282 282 281 281 281 281 281 282 282 283 283
313 306 302 306 309 308 308 309 311 309 310 317 314 308 310 311 308 307 305 305 304 301 300 302 305 301 297 297 295 295 294 292 291 289 288 288 288 288 287 287 286 285 285 284 284 284 284 283 283 282 282 281 281 281 280 280 279 279 279 279 280 280 280 279 279 279 279 280 280 279 279 280 280 280 280 280 280 279 279 279 279 279 279 280 281 281
308 304 304 309 310 309 310 309 309 309 309 311 308 304 308 310 308 306 306 307 308 306 302 301 306 305 297 296 296 295 293 291 290 289 288 288 287 287 287 286 286 285 284 284 284 283 283 283 282 282 281 280 279 279 279 279 278 278 277 278 279 279 278 276 276 276 277 278 278 277 277 277 278 278 278 278 278 278 277 277 277 277 277 278 278 279
306 306 308 310 312 310 309 307 306 309 312 309 304 304 307 307 306 307 306 306 308 306 302 300 304 306 299 297 297 295 293 291 290 289 288 288 287 287 286 286 285 285 284 284 283 283 282 282 282 281 280 279 278 278 278 278 278 277 276 276 277 277 276 274 274 275 276 277 276 275 275 275 275 276 276 276 276 276 275 275 275 275 275 276 277 278
305 307 308 307 310 310 307 305 303 306 308 306 304 303 304 303 304 306 305 307 306 303 305 303 301 306 302 297 297 295 293 292 290 289 288 287 287 287 286 286 285 285 284 283 282 282 282 281 281 280 279 278 277 277 277 277 277 276 275 274 275 275 274 274 274 274 276 276 275 274 274 274 275 275 275 274 274 273 273 273 273 273 274 276 277 279
304 305 304 303 306 307 305 303 303 305 303 303 302 302 303 303 304 305 305 307 306 305 310 306 300 307 305 296 295 296 293 292 290 289 288 287 287 287 286 286 285 285 284 283 282 282 281 280 280 279 278 278 277 276 276 276 276 276 275 274 273 273 273 273 273 274 275 274 273 273 273 274 274 273 272 272 272 272 271 272 272 272 274 275 277 277
305 303 302 303 304 303 302 301 301 302 300 300 301 303 304 303 303 307 308 305 305 309 310 303 300 307 307 298 295 295 294 292 290 289 288 287 286 286 286 286 285 285 284 283 282 281 281 280 279 278 278 277 277 276 275 275 276 276 275 273 273 273 272 272 272 273 273 272 272 272 273 273 272 271 271 270 270 270 271 271 271 272 273 275 275 275
307 304 303 303 302 301 300 301 300 299 300 301 303 304 303 303 302 305 309 306 307 313 308 300 298 304 307 300 294 293 291 291 290 289 288 287 286 286 286 286 285 284 283 282 282 281 280 279 278 278 277 277 276 276 275 275 275 275 274 273 273 272 272 272 272 272 272 271 272 272 272 272 271 270 270 269 269 270 270 271 271 272 273 273 273 273
309 307 304 302 301 300 300 303 303 302 303 303 305 307 306 307 306 306 310 307 308 311 303 298 300 303 302 294 291 290 289 290 290 289 288 287 286 286 285 285 285 284 283 282 281 281 280 279 278 278 277 277 276 275 275 274 274 275 274 273 272 271 271 271 271 271 271 270 271 272 271 271 270 269 269 269 269 270 270 270 271 272 272 271 271 270
309 308 304 303 302 299 299 303 304 304 304 303 304 307 308 309 307 309 311 304 304 306 299 297 301 302 297 291 290 290 289 289 289 288 288 287 286 286 285 285 285 284 283 282 281 281 279 278 278 277 277 276 276 275 274 274 274 274 273 272 272 271 271 271 271 270 270 270 271 271 270 269 269 268 268 268 269 270 270 270 271 271 270 270 269 269
306 306 302 302 301 300 302 301 300 301 303 302 301 303 306 308 305 307 312 306 304 306 301 299 301 301 297 293 290 289 289 289 289 289 288 287 286 286 285 285 284 283 282 281 281 280 279 278 277 277 277 276 275 274 273 273 273 273 272 272 271 270 270 270 270 269 269 270 270 270 269 269 268 268 268 268 269 270 270 270 270 269 268 268 268 267
304 303 301 301 298 300 303 300 297 300 301 300 299 302 305 307 306 305 305 303 302 305 304 301 298 294 292 291 289 289 288 288 288 289 288 287 286 284 284 285 284 282 281 281 280 279 278 277 277 276 276 275 274 273 273 273 273 272 271 271 270 270 270 269 269 269 269 270 270 269 268 268 267 267 267 268 269 269 269 269 268 267 267 267 267 267
304 304 303 302 300 299 299 299 299 300 302 301 300 303 301 300 306 306 300 297 298 303 303 299 295 291 290 291 289 288 288 287 287 287 287 286 285 283 283 284 283 281 280 280 279 279 278 277 276 276 275 274 273 273 272 272 272 272 271 270 270 269 269 269 268 268 269 269 269 268 268 267 266 266 267 268 269 268 268 268 267 266 266 266 266 265
301 304 304 301 302 300 296 298 300 298 301 303 302 304 299 296 304 306 302 302 303 305 303 299 296 293 294 295 290 287 288 286 286 287 286 286 284 282 282 283 283 281 280 280 279 278 277 276 276 275 274 273 273 272 271 271 271 271 270 270 269 269 269 268 268 268 269 268 267 267 267 266 266 266 267 268 268 267 267 266 265 265 265 265 265 265
299 304 305 300 301 302 297 298 301 299 298 300 299 300 299 301 307 305 303 304 304 305 305 301 296 294 296 295 290 288 287 286 286 286 286 285 283 282 282 282 282 280 279 279 278 278 277 276 275 274 273 272 272 272 271 271 271 270 270 269 269 269 268 268 268 268 268 267 267 267 266 265 265 266 266 267 267 266 265 264 264 264 264 264 264 264
299 302 304 300 298 299 299 300 303 302 301 301 301 301 301 304 306 303 301 303 302 305 306 302 299 296 294 291 289 288 286 285 285 285 285 285 283 282 281 282 282 280 278 278 277 277 276 275 275 273 273 272 271 271 270 270 270 269 269 269 268 268 267 267 267 267 267 266 266 266 265 265 265 265 266 266 265 264 264 263 264 263 263 263 263 263
299 300 303 303 300 299 299 299 299 300 300 302 305 305 303 303 303 300 298 298 301 305 305 303 303 297 290 288 288 287 285 285 285 284 284 284 283 282 281 281 281 279 278 278 277 276 275 275 274 273 272 272 271 271 270 270 270 269 269 268 268 267 267 267 267 267 266 266 266 265 264 264 265 265 265 265 264 264 263 263 263 263 262 262 263 263
300 300 301 303 303 301 299 296 295 297 296 298 302 301 298 300 302 302 301 299 299 302 301 302 304 296 287 286 286 285 285 285 284 283 283 283 283 282 280 281 280 278 277 277 276 275 275 274 273 273 272 271 270 270 270 269 269 268 268 268 267 267 266 266 266 266 266 265 265 265 264 264 264 264 264 264 263 263 262 262 262 262 262 262 262 263
298 299 300 302 301 299 297 294 295 296 295 296 298 295 296 299 301 303 305 302 299 300 298 299 302 295 286 284 285 284 284 284 283 283 282 282 282 281 280 280 279 277 276 276 275 274 274 274 273 272 271 271 270 269 269 269 268 268 267 267 267 266 266 266 266 265 265 265 264 264 263 263 263 263 263 263 262 262 262 262 262 261 261 262 262 262
297 298 300 303 302 300 297 295 294 294 295 299 297 292 293 296 296 298 300 299 298 300 300 300 303 295 286 284 285 284 284 283 283 283 281 281 281 280 280 279 278 276 275 275 275 274 273 273 272 271 271 270 270 269 269 268 267 267 267 266 266 265 265 265 265 265 264 264 264 263 263 263 262 262 262 262 261 261 261 261 261 261 261 261 262 261
297 298 300 303 306 306 304 302 301 298 297 298 295 290 290 292 294 295 295 297 298 297 295 299 302 295 287 284 284 284 283 283 283 282 281 281 280 279 279 278 276 275 274 274 274 273 273 272 272 271 270 269 269 269 268 267 267 266 266 265 265 265 265 265 264 264 264 263 263 262 262 262 261 261 261 261 261 261 261 261 261 261 261 261 260 260
296 297 298 301 304 305 305 304 302 299 297 295 293 290 289 291 294 295 296 300 300 294 292 297 299 293 286 285 284 283 283 282 282 281 281 280 279 279 278 276 275 274 274 273 273 273 272 272 271 270 269 269 269 268 268 267 266 266 265 265 264 264 264 264 263 263 263 262 262 262 261 261 261 260 260 260 260 261 261 260 260 260 260 259 259 259
298 298 297 300 302 300 300 298 295 296 296 296 294 292 290 290 291 294 298 299 296 293 294 295 293 291 288 286 285 283 282 282 281 281 280 279 279 278 276 275 274 274 273 273 273 272 272 271 271 269 269 269 268 268 267 266 265 265 264 264 264 264 264 263 263 262 262 261 261 261 261 260 260 260 260 260 260 260 260 260 259 259 259 258 258 258
299 298 295 297 297 293 294 293 291 293 293 291 292 291 290 290 291 295 296 293 290 293 297 293 289 290 289 285 283 282 281 281 281 280 279 279 278 277 275 274 274 273 273 273 272 271 271 270 270 269 268 268 267 267 266 265 265 264 264 264 264 264 263 262 262 261 261 261 260 260 260 260 260 260 260 260 259 259 259 259 258 258 258 258 257 257
300 300 296 295 294 291 291 290 289 290 289 288 289 289 289 290 292 292 291 289 289 292 294 290 288 288 287 283 282 282 281 280 280 279 279 278 277 276 274 273 273 272 272 272 271 271 270 270 269 268 268 267 267 266 265 265 264 263 263 263 263 263 262 262 261 260 260 260 260 259 259 259 259 259 259 259 259 258 258 258 257 257 257 257 257 257
298 300 297 296 296 292 291 290 289 290 290 288 288 288 288 288 290 290 290 289 289 290 290 288 287 287 284 281 281 281 281 280 279 279 278 277 276 275 273 273 272 272 272 271 270 270 269 269 268 267 267 267 266 265 264 264 263 263 263 263 263 262 262 261 260 260 260 259 259 259 259 259 259 259 259 258 258 257 257 257 257 256 256 256 256 256
295 296 295 295 298 295 292 291 290 290 291 290 288 287 288 288 288 289 289 289 289 290 288 287 287 286 283 280 281 281 280 279 278 278 277 276 275 274 273 272 271 271 271 270 270 269 269 268 267 267 266 266 265 264 264 263 263 262 262 262 262 261 261 260 260 259 259 259 259 258 258 259 258 258 258 257 257 257 256 256 256 256 256 256 255 255
297 298 296 296 300 299 293 291 291 289 290 292 290 288 288 288 289 288 288 288 288 289 288 287 288 285 282 280 280 280 279 278 277 277 276 275 274 273 272 272 271 271 270 270 269 269 268 267 267 266 266 265 265 264 263 263 262 262 262 262 261 261 260 260 259 259 259 258 258 258 258 258 258 257 257 256 256 256 256 255 255 255 255 255 255 255
294 299 300 296 299 299 293 291 291 290 293 296 291 287 287 288 288 286 286 287 286 286 287 287 286 282 280 280 279 278 278 277 276 276 276 274 272 272 272 271 270 270 269 269 269 268 267 267 266 266 265 265 264 263 263 262 262 262 261 261 261 260 259 259 259 258 258 258 258 258 257 257 257 256 256 256 255 255 255 255 255 255 255 255 255 255
292 299 300 293 295 300 295 290 290 294 298 295 288 285 285 287 287 286 286 286 285 284 284 283 282 280 280 279 278 277 277 276 276 276 275 273 271 271 271 270 270 269 269 269 268 267 267 266 266 265 265 264 263 262 262 262 261 261 261 260 260 259 259 258 258 258 258 258 258 257 257 256 256 255 255 255 255 255 254 254 254 254 254 254 254 255
297 299 298 292 294 298 296 292 292 296 297 290 285 284 285 285 286 285 284 283 282 281 281 280 280 279 279 278 277 277 276 275 275 275 273 272 271 270 270 270 269 269 268 268 267 266 266 265 265 265 264 263 262 262 261 261 261 260 260 259 259 258 258 258 258 257 257 257 257 256 256 255 255 255 255 254 254 254 254 254 254 254 254 254 254 254
298 299 295 293 293 293 293 294 291 290 289 286 286 285 284 285 285 285 284 282 280 280 279 278 279 278 277 277 277 276 275 274 274 274 272 271 271 270 269 269 268 268 268 267 266 266 265 265 264 264 263 262 262 261 261 260 260 260 259 259 258 258 258 257 257 257 257 257 256 256 255 255 254 254 254 254 254 253 253 253 253 254 254 254 254 254
294 297 294 291 291 291 292 294 292 290 289 288 287 285 283 284 284 283 284 282 279 279 279 278 278 278 277 276 276 275 274 274 274 274 271 270 270 269 269 268 268 268 267 266 266 265 265 264 264 263 262 262 261 260 260 260 260 259 259 258 258 258 257 257 257 257 256 256 256 255 254 254 254 254 254 253 253 253 253 253 253 253 254 254 254 254
289 291 292 291 291 291 292 293 294 295 293 289 286 284 283 283 283 282 283 282 279 278 278 278 277 277 276 275 274 273 273 273 274 274 272 270 269 269 268 268 267 267 267 266 265 265 264 264 263 262 261 261 260 260 260 259 259 259 258 258 258 257 257 257 257 256 256 255 255 254 254 254 253 253 253 253 253 253 253 253 253 253 254 254 254 255
289 289 291 294 293 291 292 292 293 293 291 286 284 283 282 282 282 281 283 284 280 277 277 277 276 276 275 274 273 273 273 273 273 273 272 270 269 268 268 267 267 266 266 265 264 264 264 263 262 261 261 260 260 260 259 259 258 258 257 257 257 257 257 257 256 256 255 255 254 254 254 253 253 253 253 252 252 253 253 253 253 253 254 254 255 255
293 291 290 292 291 288 289 292 292 290 288 285 283 283 282 281 281 282 286 285 279 277 277 277 276 275 274 273 272 273 272 272 272 272 271 270 268 268 267 266 266 266 265 264 264 264 263 262 261 261 260 260 259 259 259 258 258 257 257 257 257 257 256 256 256 255 254 254 254 253 253 253 252 252 252 252 252 252 253 253 253 254 254 255 255 255
292 290 287 289 290 288 289 291 290 288 286 283 283 282 281 281 282 285 286 282 278 277 277 276 274 274 273 272 272 272 272 272 271 270 270 269 267 267 266 266 265 265 264 264 264 263 262 261 260 260 260 259 259 259 258 258 257 257 257 257 256 256 256 256 255 254 254 253 253 253 253 252 252 252 252 252 252 253 253 253 254 254 254 255 255 256
290 289 287 288 289 286 286 288 289 287 284 281 282 282 281 283 285 285 282 279 277 277 276 274 273 273 272 272 271 271 270 270 270 269 269 268 267 266 266 265 264 264 264 263 263 262 261 260 260 259 259 259 259 258 258 257 257 257 256 256 256 256 255 255 254 254 253 253 253 253 252 252 252 252 252 252 252 253 253 253 254 254 255 255 255 256
287 289 290 289 286 285 286 288 289 287 283 280 281 283 282 283 283 280 278 277 277 276 274 273 273 272 272 271 270 270 269 268 268 268 267 267 266 265 265 264 264 264 263 263 262 261 260 260 259 259 259 258 258 258 257 257 256 256 256 256 256 255 255 254 254 253 253 253 252 252 252 252 252 252 252 252 253 253 253 254 254 255 255 255 255 256
285 287 290 289 286 287 291 291 288 285 282 280 281 282 281 280 279 278 277 277 276 274 273 272 272 271 271 270 268 268 268 268 267 267 266 266 265 265 264 264 263 263 263 262 261 261 260 259 259 258 258 258 257 257 257 256 256 256 256 256 255 255 254 254 253 253 252 252 252 252 252 251 252 252 252 252 253 253 253 254 254 255 255 255 255 256
285 285 286 286 286 286 288 288 286 283 281 280 280 280 279 278 278 277 276 275 275 273 272 271 271 270 269 269 268 268 267 267 267 266 266 265 265 264 263 263 263 263 262 261 261 260 259 259 258 258 258 257 257 257 256 256 256 256 255 255 255 254 254 253 253 252 252 252 252 251 251 251 251 252 252 253 253 253 253 254 254 255 255 255 255 256
283 283 283 284 285 284 283 284 283 282 281 280 279 278 277 277 276 276 275 274 273 272 271 271 270 269 268 268 267 267 267 266 266 266 265 264 264 263 263 262 262 262 261 260 260 259 259 258 258 258 257 257 256 256 256 256 256 255 255 255 254 254 253 253 252 252 252 252 251 251 251 251 251 252 252 253 253 253 253 254 254 254 255 255 256 256
282 282 283 284 284 284 284 284 282 281 281 280 278 277 276 276 275 274 273 272 271 271 271 270 269 268 268 267 266 266 266 266 265 265 264 263 263 262 262 262 262 261 260 260 259 258 258 258 257 257 257 256 256 256 256 256 255 255 255 254 254 253 253 252 252 252 251 251 251 251 251 251 252 252 252 253 253 253 253 254 254 254 255 255 256 256
283 282 283 284 283 283 284 283 281 280 281 279 277 276 275 275 274 273 272 271 271 270 270 269 268 267 267 266 266 265 265 265 265 264 263 262 262 262 262 261 261 260 260 259 258 258 258 257 257 257 256 256 256 255 255 255 255 255 254 254 253 253 252 252 252 251 251 251 251 251 251 251 252 252 252 252 253 253 253 254 254 254 255 255 256 257
282 282 283 283 283 283 283 282 281 280 280 278 276 275 274 273 273 272 271 270 270 269 268 267 267 267 266 266 266 265 265 265 264 263 262 262 261 261 261 261 260 259 259 258 258 258 257 257 257 256 256 256 255 255 255 255 255 254 254 253 253 252 252 252 251 251 251 251 251 251 251 252 252 252 252 252 253 253 253 253 254 254 255 255 256 257
282 284 283 282 284 285 284 282 281 280 280 279 277 275 273 272 271 270 270 269 269 268 267 266 266 266 266 265 265 264 264 264 263 262 262 261 261 261 260 260 259 259 258 258 257 257 257 256 256 256 255 255 255 255 255 254 254 254 253 253 253 252 252 251 251 251 251 251 251 251 251 251 252 252 252 252 253 253 253 253 254 254 255 256 256 256
283 285 284 284 285 284 283 281 280 279 279 279 277 274 271 271 270 269 269 269 268 267 267 266 265 265 265 265 264 264 263 263 262 262 261 260 260 260 259 259 258 258 258 257 257 257 256 256 256 255 255 255 255 254 254 254 254 253 253 252 252 252 252 251 251 250 251 251 251 251 251 251 252 252 252 252 252 253 253 253 253 254 254 255 256 256
Wind_Speed
2 1 3 4 6 6 6 6 5 4 4 3 3 3 3 3 3 3 1 1 5 10 6 6 9 8 7 7 7 6 7 12 11 10 10 9 9 10 10 11 12 12 13 20 28 31 34 36 37 38 39 40 41 40 40 40 39 38 37 37 37 35 33 33 32 31 30 29 27 24 25 24 20 19 20 19 19 20 20 21 21 22 22 23 24 24
3 2 6 7 7 6 4 4 4 3 3 3 3 3 2 3 3 4 1 2 2 7 2 4 11 10 6 6 6 5 8 10 8 9 10 10 10 9 10 11 10 10 12 19 25 29 32 34 35 37 37 38 38 39 39 39 39 38 38 37 37 35 35 35 35 32 31 30 29 26 26 25 21 20 21 21 20 21 20 20 20 21 21 23 23 24
3 4 8 6 4 2 3 3 4 3 3 3 2 2 2 2 2 3 1 4 5 6 4 5 12 8 5 6 5 6 7 7 7 9 10 10 11 10 10 10 9 10 11 15 19 24 28 31 33 34 34 35 36 37 38 38 38 38 38 37 36 36 36 35 34 33 31 30 28 27 26 26 24 23 23 23 23 24 24 24 23 23 22 23 24 24
2 4 5 2 3 4 3 3 4 3 2 2 2 2 2 2 1 2 1 4 6 5 8 9 11 5 4 5 5 6 6 7 9 10 10 10 10 10 9 9 9 11 11 12 14 19 25 28 31 32 31 33 35 36 36 36 35 35 36 35 34 34 35 35 34 32 30 29 28 26 26 26 25 25 26 26 27 27 28 27 27 25 25 25 25 25
5 4 1 3 4 3 1 2 3 3 2 2 4 4 3 3 3 2 2 3 6 5 8 10 8 3 3 4 4 4 5 8 9 10 11 9 8 8 9 10 10 10 10 11 12 15 21 24 26 29 30 32 32 32 31 32 32 32 34 34 33 32 33 34 33 32 31 30 29 29 28 28 27 27 27 28 29 28 28 28 28 28 28 28 28 27
6 4 0 2 3 3 3 2 2 5 2 4 3 5 5 5 5 4 4 4 5 1 5 5 3 1 1 1 1 2 5 8 8 9 10 9 8 9 9 9 9 9 10 11 12 15 19 22 25 28 30 30 30 29 28 29 30 31 33 34 32 31 31 32 33 32 31 30 29 29 29 28 27 25 25 26 27 28 28 28 29 29 29 29 29 29
3 2 3 2 3 5 3 2 4 5 4 2 2 3 5 6 5 5 4 3 3 3 5 3 3 3 1 2 3 1 6 7 7 9 9 8 8 8 8 7 8 8 9 11 13 17 19 21 24 26 27 28 27 27 26 28 30 31 33 33 30 28 29 31 32 31 30 27 26 27 26 25 24 24 24 25 26 26 28 29 29 30 30 30 29 30
1 3 5 4 5 5 3 2 2 5 5 2 2 3 5 5 3 5 5 4 3 2 1 1 4 3 3 5 4 4 6 6 6 8 7 7 7 7 7 7 8 8 8 8 10 14 18 20 22 23 24 25 25 26 29 29 29 29 31 31 28 26 28 31 31 30 28 25 25 26 25 25 23 23 24 25 26 27 29 30 31 31 31 30 29 28
0 2 3 3 4 3 2 2 2 4 3 3 3 3 3 2 3 4 5 3 1 2 2 3 4 2 2 4 4 3 6 5 4 6 6 6 7 6 7 7 7 7 8 9 9 12 17 19 20 21 22 23 25 28 29 27 26 26 28 31 30 28 30 32 32 31 27 24 26 27 27 26 23 23 24 27 29 31 32 33 33 32 31 30 28 27
1 0 1 2 2 2 3 2 2 3 1 1 4 4 4 4 3 4 4 3 2 1 4 6 5 3 1 4 4 2 3 4 3 4 4 5 6 6 6 6 6 6 6 9 12 14 16 18 20 21 22 25 26 28 28 27 26 26 29 34 35 32 31 31 32 30 27 26 30 30 28 25 24 27 30 32 34 34 33 32 31 31 30 29 28 26
2 1 2 2 1 2 2 1 2 2 1 3 4 4 4 4 4 3 2 4 3 2 5 4 2 4 1 4 4 1 2 5 5 4 4 5 6 6 5 5 5 5 5 7 11 14 16 18 21 23 24 24 24 27 30 30 27 26 29 33 35 34 33 32 31 30 28 30 33 29 25 25 27 31 34 34 34 33 32 31 30 31 29 27 26 26
4 3 0 1 1 1 1 1 1 2 2 3 3 4 3 3 3 3 4 3 2 4 5 3 1 4 2 3 1 2 1 5 6 5 5 5 6 6 5 5 4 5 5 6 8 11 14 17 20 21 20 20 21 24 28 29 26 24 27 31 34 35 34 33 31 30 30 32 30 24 23 26 30 32 33 33 32 31 30 30 31 30 27 26 26 27
3 0 2 2 1 2 2 1 2 4 4 3 2 4 3 3 3 2 3 1 2 4 3 1 2 2 1 0 2 4 5 5 5 5 6 6 6 5 4 5 4 4 5 5 6 9 12 14 15 16 17 16 18 21 24 27 26 23 25 30 32 33 32 30 29 27 29 29 25 20 24 30 32 33 33 32 31 30 29 30 30 27 26 28 30 32
4 4 3 3 1 2 2 1 2 2 3 4 1 2 2 1 2 3 3 2 3 2 2 1 3 1 1 1 2 4 5 4 4 5 5 6 6 5 4 5 4 4 5 5 6 8 10 13 14 14 15 15 17 21 23 27 27 22 24 28 29 30 28 27 27 27 28 27 21 21 28 31 31 32 33 30 29 29 28 27 25 26 29 31 34 36
2 4 3 2 2 2 3 1 1 1 2 2 2 4 3 3 2 3 4 2 3 2 2 3 2 1 1 3 3 3 4 3 4 4 5 6 5 5 4 4 4 5 5 5 6 9 11 13 15 14 14 15 17 22 25 28 26 21 23 26 27 28 27 26 27 27 28 24 20 25 30 29 29 32 31 29 27 26 25 24 25 30 33 35 38 40
1 4 5 3 2 2 3 1 2 3 2 1 2 3 1 3 3 1 3 4 2 1 3 2 1 1 2 4 4 4 4 4 3 3 4 5 5 5 4 4 4 4 5 5 5 8 11 14 16 15 15 16 19 23 26 27 23 21 24 25 25 26 26 27 28 28 27 22 23 29 29 28 32 34 31 29 26 22 22 26 32 37 39 38 38 37
2 4 5 3 2 2 1 1 1 2 0 0 1 0 2 3 5 3 1 1 3 0 2 1 3 2 2 3 4 4 4 4 4 3 3 4 5 6 6 4 4 4 5 5 5 8 11 15 17 15 15 18 21 23 26 25 21 22 25 25 25 26 26 28 29 29 25 23 28 31 27 30 36 34 30 27 23 22 27 35 40 41 39 35 32 33
1 4 5 2 1 1 1 0 3 2 1 2 1 3 2 1 4 3 0 3 3 1 3 1 3 3 2 2 3 5 3 4 5 4 3 4 4 6 7 5 4 4 5 5 7 8 11 14 14 13 16 20 21 22 25 24 21 23 25 24 25 26 27 29 30 27 24 27 31 28 27 34 35 32 29 24 22 29 37 42 41 36 33 31 31 32
2 3 6 2 1 4 2 2 3 4 2 2 1 2 1 1 0 2 1 1 2 2 3 2 1 3 3 2 3 3 3 4 5 4 4 4 4 5 8 6 3 4 5 5 6 8 11 13 13 14 17 20 21 22 24 24 22 23 24 23 24 25 27 30 29 25 26 30 28 24 30 35 32 30 28 24 29 37 39 36 32 29 30 32 33 33
1 0 4 3 2 4 4 4 2 5 4 3 2 2 3 3 3 0 0 2 1 2 3 3 1 2 1 1 3 4 4 4 5 6 6 5 5 5 8 7 3 5 6 5 5 8 12 12 12 15 17 19 21 23 24 24 22 23 24 24 25 27 28 30 27 25 28 29 24 24 31 33 29 29 28 27 32 35 33 29 27 29 33 34 34 35
2 1 3 5 4 3 3 2 1 2 3 3 4 4 4 2 0 1 1 1 1 1 1 2 3 2 1 3 4 5 3 4 5 6 6 7 6 6 8 7 3 4 6 5 5 9 12 11 12 16 17 18 22 24 24 24 23 24 25 25 26 28 29 29 27 26 28 26 23 26 32 31 28 28 28 29 30 31 31 30 29 32 35 36 36 34
2 1 2 5 5 3 2 2 2 2 1 2 2 2 1 2 2 2 2 1 1 1 2 1 3 2 2 3 3 4 3 3 5 6 6 7 6 6 7 5 3 4 6 6 7 9 11 10 12 15 17 20 23 25 24 23 23 24 24 24 26 27 28 27 26 26 26 24 24 28 32 31 29 30 31 31 30 31 32 31 32 33 36 38 35 30
0 2 1 4 4 3 5 4 1 0 3 6 4 2 0 0 3 3 2 3 1 2 0 1 2 3 1 1 2 3 3 2 4 5 6 7 5 6 7 4 4 5 6 7 8 9 11 13 14 16 19 22 23 23 23 22 22 23 24 24 26 27 27 26 25 26 26 25 26 30 31 30 29 31 32 31 31 32 32 31 32 35 37 36 32 33
1 2 2 4 4 3 5 4 2 2 4 5 3 3 2 2 1 3 4 2 1 2 2 2 2 4 3 2 2 3 3 3 3 4 6 6 6 8 7 3 4 5 6 8 8 10 14 16 15 16 19 21 21 20 20 21 22 23 24 25 25 27 26 25 25 26 26 26 29 30 30 29 30 31 31 31 31 31 31 31 33 35 35 34 35 39
2 1 2 3 5 6 6 5 4 4 4 3 2 3 3 3 4 1 1 2 1 1 2 2 3 3 2 3 2 3 3 4 3 4 7 7 7 8 5 3 4 5 6 7 7 11 16 16 14 15 17 19 20 19 19 20 21 22 23 24 25 26 24 23 24 26 26 27 30 30 29 29 29 30 31 31 31 31 32 33 34 35 34 34 36 38
0 1 2 2 1 3 3 3 4 4 3 2 2 5 5 4 4 2 0 3 1 1 1 2 4 2 2 3 1 4 5 7 6 5 6 6 7 7 4 3 4 6 7 8 7 11 15 14 12 14 17 19 19 18 19 21 22 23 24 25 25 24 23 23 25 25 26 29 30 29 29 30 29 30 31 31 30 31 33 34 34 34 34 34 36 35
2 1 2 4 4 3 4 4 4 2 2 2 4 7 7 4 3 3 3 2 1 1 3 2 3 2 1 2 1 6 8 8 7 7 7 7 8 5 3 4 6 6 8 8 7 10 13 13 12 15 18 19 19 18 19 20 22 24 25 26 25 23 22 24 25 26 28 29 29 29 30 30 31 31 30 29 30 33 34 33 32 32 33 33 33 33
4 3 3 4 2 2 3 3 4 3 3 2 3 5 7 7 6 6 4 0 2 2 3 3 2 2 2 2 4 6 7 7 7 8 7 8 8 4 2 5 7 8 8 8 8 10 11 11 13 16 19 20 20 20 21 21 23 25 26 26 24 22 23 24 25 26 29 28 28 30 31 31 31 30 28 30 33 34 33 32 32 32 33 32 32 32
5 2 2 3 1 4 3 3 3 4 4 3 3 4 6 7 7 6 2 2 2 1 4 2 1 4 2 4 5 5 6 6 7 7 7 9 8 3 3 6 7 8 9 9 9 10 10 11 14 18 20 21 22 23 24 24 25 26 26 24 23 23 24 25 26 28 29 29 31 32 33 32 30 29 30 32 34 33 32 32 33 33 32 32 32 32
4 1 1 2 2 4 4 4 3 4 4 3 4 4 4 5 5 4 0 1 0 4 5 2 4 5 1 4 4 5 5 6 7 7 9 11 8 4 5 7 7 8 9 9 10 11 11 14 17 20 22 22 22 23 24 25 26 26 25 23 23 24 24 26 30 31 31 32 34 35 33 31 30 30 31 32 33 33 33 33 33 33 33 32 32 33
2 2 1 3 2 4 3 4 4 3 4 4 4 4 4 4 4 3 2 2 2 4 4 4 6 4 2 4 5 6 6 7 8 9 11 10 6 4 5 7 7 9 10 10 11 12 13 16 19 21 22 21 22 23 25 25 26 25 24 23 24 25 27 30 32 32 31 33 35 34 32 30 31 32 32 32 33 33 32 33 33 33 33 33 32 33
4 2 2 4 2 4 3 3 2 2 3 3 3 5 5 4 2 2 2 2 2 5 6 6 5 3 2 6 7 6 8 9 8 10 11 7 4 5 6 7 8 10 11 12 12 11 12 16 19 21 21 21 22 23 25 26 26 25 24 24 25 27 30 32 31 31 32 33 33 32 31 31 32 33 33 33 33 32 32 33 33 33 33 33 33 33
2 2 2 4 1 3 3 2 1 2 4 3 3 4 4 2 2 3 4 4 3 3 3 4 3 2 5 8 8 9 9 8 8 10 9 5 5 6 6 7 9 11 12 13 11 10 13 17 19 20 20 21 22 24 26 27 26 25 25 26 27 29 32 32 30 31 33 32 32 31 31 32 33 34 34 33 33 33 33 33 34 33 33 34 34 34
2 4 2 2 1 3 5 3 2 3 3 3 1 2 4 2 2 5 8 7 3 1 1 2 3 5 8 8 9 10 9 8 9 10 6 4 5 6 7 9 11 12 12 12 10 12 17 19 20 20 20 21 24 26 28 27 26 25 26 28 30 32 32 32 32 32 33 32 31 32 33 34 35 35 35 34 33 34 35 35 35 34 34 36 36 36
4 4 1 1 2 2 4 5 5 2 4 5 2 4 3 1 3 6 7 3 3 4 4 5 6 7 9 8 8 9 8 8 11 8 3 6 5 6 9 11 11 12 11 10 10 15 19 20 21 20 21 23 26 28 29 27 26 27 28 31 32 33 32 32 33 33 32 32 33 34 35 36 37 36 35 35 35 36 36 36 36 37 37 38 38 38
3 3 1 1 1 2 3 4 2 4 3 2 2 6 5 3 4 7 4 1 3 4 5 5 7 7 8 8 8 7 8 10 9 2 4 6 6 8 9 10 11 12 12 11 14 18 20 20 20 20 22 25 28 28 28 27 27 29 31 33 33 33 32 33 34 33 32 33 36 38 38 37 37 36 36 36 37 37 37 37 38 40 41 41 41 41
4 3 2 2 2 1 1 2 4 3 3 2 2 4 4 2 3 4 2 1 0 2 3 5 7 7 7 8 7 7 9 9 5 2 4 6 8 9 9 10 13 15 14 15 18 20 20 19 19 21 25 27 28 27 27 28 29 31 33 34 33 33 33 33 33 32 33 36 39 41 41 38 37 37 38 39 39 38 38 38 40 41 41 41 41 41
5 4 3 2 2 2 2 2 4 4 3 2 1 2 3 4 3 2 1 1 1 2 4 5 6 8 8 7 8 8 9 8 4 0 3 5 6 9 11 13 16 17 15 18 21 20 19 19 21 24 27 27 27 27 27 28 30 31 32 32 32 32 33 32 32 33 36 40 42 42 42 40 39 39 40 40 40 40 40 40 41 41 40 40 40 41
7 4 4 4 3 3 3 1 2 2 3 3 2 4 6 4 3 0 1 2 1 2 4 5 7 9 7 6 8 8 8 9 7 4 4 5 7 11 14 15 16 16 16 19 20 19 18 20 23 27 27 26 26 27 27 28 29 30 30 30 30 31 31 30 31 35 39 41 43 42 41 41 40 40 40 41 41 41 41 41 41 41 40 39 39 40
7 5 5 5 3 1 2 1 3 3 2 2 2 6 7 3 2 4 4 5 3 3 5 6 7 8 5 5 7 6 5 7 9 9 9 10 11 14 15 16 17 17 19 20 19 18 19 22 25 27 27 27 27 27 27 28 28 28 28 29 29 29 29 30 33 37 40 42 42 42 41 40 40 39 39 40 41 41 41 41 40 41 40 39 39 39
4 3 3 4 3 2 1 1 4 3 1 2 4 7 7 2 4 3 4 5 3 6 7 6 7 7 5 4 5 4 4 6 9 12 14 14 14 15 16 18 18 18 19 19 18 19 21 23 24 25 26 27 28 28 29 29 29 28 28 28 28 28 29 32 36 39 40 41 41 42 42 41 39 39 39 39 39 39 40 40 39 40 39 38 38 38
3 3 2 2 2 2 1 1 4 4 2 2 5 7 4 2 2 3 4 3 5 8 7 5 6 6 5 5 5 5 7 8 9 11 12 12 13 15 18 20 19 19 19 18 18 20 23 25 24 25 27 27 27 29 31 31 30 30 30 30 30 31 33 37 39 40 40 41 41 42 42 41 40 38 38 38 37 38 39 39 38 39 39 38 37 38
0 1 3 2 1 1 2 1 3 4 3 2 5 5 3 1 2 3 3 4 6 6 5 4 5 5 5 6 7 7 9 9 8 8 9 11 13 15 18 19 18 18 18 18 19 22 24 25 25 26 27 27 27 29 30 31 30 30 30 31 32 34 37 39 40 41 41 41 42 42 42 41 41 39 37 37 36 36 37 37 38 38 38 37 37 37
1 1 1 3 1 2 1 1 2 2 2 2 2 2 1 1 1 3 4 5 4 3 3 4 4 4 5 6 9 9 9 8 8 7 8 10 13 16 17 17 17 18 17 18 21 24 24 25 27 27 27 26 28 30 30 29 29 29 30 32 34 37 39 40 41 42 42 42 42 42 42 41 40 38 36 35 35 36 36 37 37 37 37 37 36 34
2 3 3 2 2 2 4 5 3 1 1 1 1 1 1 2 3 3 3 4 3 2 2 3 4 5 6 7 8 8 7 7 8 8 8 10 13 15 16 16 17 17 17 20 23 24 25 25 26 26 27 28 29 30 29 27 27 29 31 33 35 38 39 40 42 42 42 43 43 42 42 41 39 36 34 33 34 35 36 35 35 35 36 36 35 32
2 2 3 1 3 4 5 4 1 1 3 2 1 1 0 0 2 2 2 2 2 2 3 4 4 5 6 7 7 7 7 8 8 8 9 11 13 15 15 16 16 17 19 22 24 26 26 25 24 25 27 29 30 30 29 27 26 28 30 34 36 36 37 40 41 41 42 43 42 42 42 40 37 34 33 34 34 35 35 33 33 34 35 34 33 32
1 1 2 1 2 3 3 2 1 3 5 2 1 1 1 1 1 1 1 1 1 2 3 4 5 6 7 6 6 6 8 8 8 8 9 11 13 14 15 16 17 19 21 23 25 26 26 25 24 26 28 30 31 30 29 28 27 28 31 34 36 36 38 39 40 40 42 42 41 41 40 37 35 34 35 36 35 35 36 35 33 33 33 32 32 32
1 2 2 1 1 2 4 4 4 6 5 1 3 1 0 1 1 3 3 2 2 3 4 5 6 7 7 6 6 7 8 8 8 8 9 11 13 14 15 16 18 20 22 23 25 26 25 24 26 27 29 30 31 30 29 29 29 30 33 35 36 36 38 40 40 40 41 41 40 40 38 35 34 35 37 37 35 34 35 36 35 34 33 32 31 30
1 1 2 1 1 4 5 5 6 7 3 2 3 1 2 2 1 2 2 2 2 3 4 6 7 8 7 7 8 8 7 8 9 10 11 13 14 15 17 18 20 21 23 24 24 24 24 26 27 28 29 31 31 30 30 30 30 31 33 35 35 36 38 41 42 41 40 40 40 39 37 34 34 36 37 36 35 34 32 31 31 32 33 33 31 30
1 1 1 1 2 4 4 2 2 4 5 3 0 2 3 3 2 1 1 2 2 3 5 6 7 7 7 7 8 8 8 8 10 12 14 14 15 17 19 20 21 22 23 24 24 24 25 26 27 29 30 31 30 30 30 31 31 33 34 35 34 35 38 41 42 40 39 39 39 37 36 35 36 37 36 35 35 36 34 32 30 28 28 30 32 33
3 4 4 2 2 5 5 3 1 2 5 5 1 3 4 3 2 1 1 1 2 4 5 6 6 6 6 7 8 9 9 9 12 14 15 15 16 18 19 21 22 23 24 24 24 25 26 27 28 29 31 31 31 30 31 32 32 33 35 34 34 35 38 40 39 38 37 38 38 36 34 35 36 37 37 36 35 35 35 36 35 31 28 28 30 34
Wind_Direction
79 147 244 225 222 231 229 209 194 179 143 123 145 155 198 207 274 270 157 7 103 85 45 72 84 59 41 27 14 6 47 68 70 73 72 69 67 62 61 57 52 53 47 44 44 44 47 51 53 53 53 53 53 50 50 49 47 45 44 43 41 38 37 35 32 31 28 25 23 21 18 13 12 10 3 360 358 355 352 350 348 347 346 342 338 334
63 205 241 234 228 233 237 197 147 122 110 87 154 182 277 207 246 273 148 332 32 92 105 107 78 54 36 35 11 12 58 61 56 68 66 61 62 57 57 55 54 57 50 48 46 44 46 48 50 51 49 49 47 44 43 42 41 40 39 37 35 33 32 30 27 25 24 22 19 17 15 11 8 6 1 358 354 350 346 343 342 340 338 336 335 333
13 245 247 244 211 141 67 119 126 109 111 86 127 153 291 245 228 282 329 360 20 94 152 114 82 60 20 39 28 24 59 59 40 56 59 59 61 54 52 52 54 56 50 48 45 43 45 45 47 47 45 45 44 41 39 38 37 36 34 32 30 28 26 24 22 20 18 15 12 11 9 5 3 360 355 351 347 344 342 341 340 337 335 334 332 331
299 255 255 242 130 119 57 50 97 89 88 115 141 157 255 254 172 261 319 25 25 88 142 118 90 71 15 38 42 24 48 65 53 58 60 59 62 57 55 54 53 55 51 48 45 43 44 44 45 44 42 43 41 39 37 35 33 31 29 28 27 25 24 23 21 18 15 11 6 4 360 357 356 353 349 346 344 344 342 341 340 337 335 334 332 331
244 251 238 74 75 136 153 19 104 130 309 283 189 191 217 209 177 177 142 92 45 62 139 120 87 60 14 39 55 25 36 58 56 61 59 51 57 59 58 57 56 56 53 51 48 42 44 45 44 44 43 42 41 38 35 33 32 29 28 28 27 25 24 24 22 18 16 13 7 3 359 357 355 353 353 351 349 348 347 344 342 341 339 337 334 333
264 270 235 80 52 78 135 262 222 169 244 302 242 208 194 171 152 119 107 109 76 27 208 147 96 313 359 54 117 31 44 58 53 57 55 43 46 52 53 56 56 57 56 53 51 45 44 44 44 44 41 40 38 34 31 31 31 29 28 29 28 27 24 20 16 14 13 13 11 9 6 2 358 356 356 353 349 346 345 342 340 340 340 338 335 334
274 338 47 104 95 67 73 272 249 160 136 300 270 183 147 121 116 124 121 119 126 218 230 174 158 184 166 210 214 124 72 69 57 56 53 42 42 47 54 57 53 54 55 53 50 46 44 43 44 43 40 38 34 29 29 29 29 28 27 27 27 24 20 14 11 10 11 11 10 8 6 1 355 350 347 346 344 342 342 340 338 338 337 336 334 332
244 350 24 55 73 58 35 314 254 135 120 241 239 122 118 109 128 167 159 178 213 232 279 129 124 127 173 202 201 137 91 72 60 55 48 43 41 46 56 59 56 55 52 52 50 45 45 45 45 44 39 36 32 28 28 27 26 25 23 23 23 19 14 11 10 10 11 10 7 5 0 355 351 347 343 344 344 341 339 337 335 335 334 335 334 331
262 8 13 48 52 29 297 279 228 130 105 243 205 116 107 124 160 161 149 178 275 27 261 212 142 115 213 180 162 130 102 85 72 64 55 46 40 46 57 58 59 59 56 56 53 48 48 47 45 42 36 34 31 28 26 24 22 21 19 18 19 16 10 8 8 8 10 8 3 359 354 352 353 351 347 344 341 338 336 334 333 333 334 336 338 336
14 213 205 105 66 274 259 268 208 148 52 199 137 91 57 64 77 92 116 133 62 53 234 227 172 147 234 182 168 157 131 132 116 89 76 53 42 46 56 60 58 57 59 56 54 52 51 48 41 35 32 30 28 25 23 21 19 16 14 12 12 11 7 4 4 6 6 1 356 355 355 357 356 351 345 340 337 336 334 332 332 334 335 337 339 339
320 282 202 108 114 214 224 282 165 141 131 135 103 54 41 40 44 49 69 98 77 265 250 255 176 125 153 195 171 202 181 148 135 115 89 57 45 42 52 66 60 56 58 51 50 51 49 43 34 29 28 26 23 22 20 18 15 13 11 8 7 6 3 1 1 2 360 354 354 357 359 357 352 346 342 338 335 334 334 333 332 334 335 335 336 334
357 23 289 320 317 113 75 39 71 50 62 108 86 51 41 346 18 28 355 50 102 256 265 289 47 103 138 202 138 11 56 119 123 120 100 69 46 35 49 68 63 62 60 50 48 47 45 37 29 27 26 24 24 21 19 16 11 10 9 4 2 1 359 357 357 357 353 350 355 359 355 350 345 342 340 336 334 333 334 332 331 333 334 334 334 332
7 357 305 324 341 55 58 14 1 9 38 53 40 58 45 339 3 354 318 337 203 247 255 318 12 65 104 349 66 70 86 97 102 110 109 88 59 38 47 69 68 66 59 51 50 48 46 36 26 26 24 23 26 20 15 12 7 6 5 1 359 356 354 353 352 350 347 347 353 354 347 343 341 340 339 335 332 332 331 331 332 335 337 334 332 330
341 304 337 10 340 23 74 67 350 334 10 3 344 104 100 58 27 305 278 276 271 249 228 328 21 77 124 74 102 110 110 104 96 106 110 97 77 44 50 81 77 62 58 51 51 53 48 34 24 23 21 24 25 18 13 7 3 2 1 358 355 351 349 349 348 345 343 346 349 345 341 340 339 338 335 332 330 330 331 333 334 334 334 331 327 325
1 301 327 18 308 3 43 88 134 183 8 339 174 127 132 157 152 262 237 233 272 260 290 333 28 191 184 117 131 133 122 107 88 94 101 96 80 44 51 90 83 59 55 49 51 54 45 30 22 18 21 27 22 15 9 2 358 359 357 354 349 347 347 346 345 342 341 343 342 339 339 339 337 335 333 330 330 330 332 334 332 330 328 325 321 320
76 265 272 301 289 32 27 305 108 76 35 289 154 91 63 182 149 201 197 181 211 290 313 331 84 48 95 121 132 113 90 77 65 61 86 92 68 43 42 77 86 59 46 48 50 47 37 25 17 17 26 26 16 10 4 356 355 355 353 349 346 345 344 343 343 340 340 341 338 337 338 337 336 335 334 332 330 331 331 330 327 325 323 320 319 318
26 279 289 329 334 65 87 260 21 34 321 79 77 190 246 177 118 107 260 35 72 38 278 142 115 77 98 154 166 135 103 83 72 45 76 94 63 42 32 48 86 60 38 48 49 40 31 18 12 22 31 21 10 5 358 352 350 351 349 346 344 343 342 342 341 340 340 339 336 336 337 337 337 337 336 333 329 327 325 324 324 323 322 321 321 321
130 276 301 9 30 299 202 160 23 25 108 71 348 235 238 95 97 102 318 352 31 231 262 99 132 174 176 187 179 157 122 72 61 30 59 91 69 39 24 34 82 60 39 41 38 35 25 13 15 29 26 13 5 358 353 349 346 348 347 345 344 342 341 341 339 339 340 337 335 334 336 336 337 337 336 330 322 322 322 322 324 326 325 323 322 322
116 285 304 340 186 299 340 73 11 342 28 71 217 223 77 82 334 17 41 319 344 279 289 342 136 194 199 192 176 143 69 42 34 20 31 56 61 39 18 20 63 54 36 27 27 26 13 12 23 27 14 4 359 353 349 346 344 345 346 344 343 340 339 339 338 336 336 336 334 332 333 334 333 334 333 324 319 322 323 323 324 325 322 320 321 321
70 107 293 290 252 314 358 51 9 323 342 15 13 355 30 130 171 284 110 176 248 276 289 323 319 240 239 145 124 102 60 37 24 15 16 21 37 34 10 5 32 42 28 20 23 15 7 15 25 14 2 358 354 348 346 346 345 345 344 343 342 339 337 338 338 335 333 333 333 331 333 332 329 329 329 322 320 323 324 322 320 321 321 319 319 320
5 117 259 295 331 357 1 32 18 285 309 353 25 16 350 339 103 358 37 107 127 223 228 314 303 249 63 44 94 102 71 51 39 21 9 4 13 21 7 2 28 39 21 16 17 8 6 14 12 359 354 352 349 346 346 347 346 344 342 341 340 338 336 335 335 334 331 331 330 330 331 330 327 326 325 321 320 322 323 320 318 320 322 319 318 319
3 113 234 296 334 356 298 285 274 258 222 117 79 50 303 300 30 42 318 328 67 137 174 210 287 248 86 38 83 95 59 48 48 32 8 357 3 12 3 6 47 40 22 12 6 5 4 1 355 351 350 348 346 346 346 346 345 343 341 339 337 336 335 332 332 333 331 329 327 327 328 327 325 325 323 319 318 319 319 318 317 319 320 319 317 316
99 94 53 285 286 282 284 294 310 318 91 97 79 46 66 344 75 106 249 281 349 352 129 136 288 261 208 49 80 77 38 21 48 42 10 352 360 4 358 19 53 34 20 3 355 3 360 348 345 349 349 347 345 345 345 345 344 342 341 339 336 334 333 331 331 330 329 327 325 325 324 322 321 321 321 319 317 316 316 315 315 317 318 316 312 311
56 58 15 298 295 314 314 328 13 43 63 67 37 30 45 340 11 156 183 197 280 322 11 55 301 265 217 148 113 91 49 18 36 39 10 353 357 357 355 22 38 21 7 352 353 2 353 345 348 351 349 347 344 343 345 345 343 341 340 337 334 330 329 330 330 328 327 325 323 321 320 319 318 318 318 317 315 313 313 313 314 315 315 312 308 309
344 341 47 1 342 346 344 349 351 348 29 51 6 6 18 9 9 348 169 57 14 274 88 127 259 268 170 148 120 86 49 20 27 27 9 358 352 348 352 17 16 3 352 346 355 358 348 346 351 350 347 344 341 340 343 343 341 339 337 334 331 328 326 328 329 327 324 322 320 318 317 316 316 316 315 315 312 311 313 314 312 312 312 309 308 308
252 203 76 82 358 313 309 312 311 315 350 26 6 1 8 27 19 337 309 47 24 285 52 159 222 270 153 171 113 43 24 7 7 5 359 353 344 343 358 15 1 355 348 347 357 353 344 343 348 348 345 341 338 339 341 340 339 337 334 332 329 325 325 327 327 325 323 321 319 317 316 316 316 315 314 313 312 312 313 312 310 310 310 308 307 306
103 48 56 123 156 216 236 263 293 320 8 350 344 353 359 2 7 58 88 63 155 301 327 220 199 286 248 199 9 17 9 358 351 347 346 341 340 349 18 6 355 352 346 345 350 345 341 341 346 347 343 339 338 339 340 339 338 335 332 329 327 325 324 325 325 324 322 320 318 317 316 316 315 314 312 312 313 312 312 311 309 308 307 306 305 304
83 27 20 96 111 264 245 290 329 39 75 52 7 358 358 356 14 67 84 287 134 82 309 253 191 298 297 83 34 7 358 351 342 340 339 335 337 354 20 358 352 347 342 343 344 341 340 342 344 343 341 338 338 338 338 338 335 333 330 327 325 326 325 325 325 324 322 320 319 318 317 315 314 313 312 312 313 313 311 310 309 307 306 305 304 303
103 43 343 100 44 327 360 9 14 76 87 62 49 21 7 15 37 70 104 216 121 122 273 268 326 300 325 47 23 359 352 341 333 333 333 331 334 355 8 356 350 342 340 342 340 337 339 342 343 341 339 338 337 338 338 336 334 332 329 326 326 326 326 326 326 324 322 321 319 319 318 316 315 314 313 313 313 313 311 310 309 308 306 305 304 304
116 17 318 112 43 353 12 11 25 92 105 63 41 28 14 27 48 67 143 233 238 266 263 317 329 304 25 45 351 343 342 329 331 337 333 331 337 3 2 347 342 337 337 338 336 337 342 345 343 340 337 337 338 338 337 334 333 331 329 327 327 327 327 327 326 324 323 322 321 321 319 317 316 316 314 314 313 312 311 310 309 308 306 305 304 304
35 353 345 86 35 328 356 31 34 70 110 101 53 21 12 17 37 46 11 352 345 292 289 343 319 293 68 33 338 336 341 337 338 334 327 328 343 4 349 338 336 334 335 337 338 340 346 346 342 338 336 336 337 338 336 333 331 330 328 328 328 327 327 327 325 323 323 322 322 322 320 319 318 317 315 314 312 311 311 310 308 307 305 304 305 304
28 8 8 57 36 295 334 48 29 9 79 96 32 2 360 1 12 12 342 324 286 285 306 331 315 295 12 352 333 338 341 336 332 324 321 332 11 1 342 336 335 335 338 340 339 343 347 344 339 336 335 336 337 337 335 333 331 329 328 328 327 326 326 325 324 323 322 323 322 322 322 320 318 316 315 314 313 311 311 309 307 306 306 305 305 305
61 67 30 46 39 285 323 5 266 336 357 315 314 341 326 316 13 354 318 297 269 270 294 299 294 326 346 338 334 335 335 336 333 322 321 346 13 352 340 337 337 340 342 338 337 344 344 339 336 335 334 336 337 335 334 333 330 328 327 327 326 325 325 324 323 323 322 323 323 323 322 321 319 316 314 314 314 313 311 310 308 307 307 306 306 305
71 82 81 51 29 283 301 344 38 29 337 263 223 8 290 253 63 357 315 305 317 58 61 308 332 347 342 342 336 327 327 336 324 313 326 29 15 344 341 346 344 342 337 333 338 345 340 336 335 335 335 336 335 333 332 332 329 326 326 326 325 325 326 325 324 324 324 324 324 324 324 323 320 317 315 315 316 314 313 311 309 308 308 308 307 306
48 56 90 85 62 280 311 21 27 325 251 211 139 25 329 186 67 335 305 305 30 45 37 3 345 339 335 332 323 317 322 324 311 308 20 51 23 357 351 347 344 337 330 334 345 343 338 336 335 335 337 336 334 332 332 331 330 328 327 327 327 326 327 326 326 326 326 325 325 326 326 324 321 318 317 317 316 315 313 312 310 310 310 310 308 307
67 71 97 88 57 331 6 33 327 267 238 183 37 11 4 32 11 338 322 67 42 35 34 355 325 323 325 318 316 322 323 312 301 307 71 48 28 19 359 341 337 331 330 343 346 340 336 335 335 336 336 334 333 333 332 331 331 329 327 328 328 327 327 328 327 327 327 326 326 326 326 324 321 318 318 317 316 314 313 312 311 311 312 311 309 308
81 95 58 35 48 56 41 278 278 320 5 358 358 7 359 338 333 333 317 241 353 52 27 339 316 319 322 319 326 329 318 308 291 144 76 47 36 19 355 338 334 330 333 344 341 334 333 333 334 336 334 332 332 333 332 331 331 329 328 328 328 328 328 328 327 327 327 326 325 325 324 323 321 318 317 317 315 313 313 312 311 312 313 311 309 308
52 73 76 57 38 67 62 324 334 357 333 278 228 337 324 291 276 270 245 267 4 23 351 334 324 325 329 333 337 332 324 325 322 42 46 48 36 8 351 343 337 332 336 340 335 331 335 337 336 334 332 331 332 333 333 332 331 329 327 327 328 328 327 327 327 327 326 325 324 324 324 323 322 320 318 317 315 314 313 313 312 313 313 310 308 307
33 44 76 73 36 46 70 7 299 265 257 235 227 306 317 297 266 356 359 299 278 317 332 341 336 333 341 346 341 343 343 334 323 326 8 26 13 360 350 340 335 333 335 335 332 333 338 338 335 333 332 332 332 332 333 332 330 329 326 326 326 326 326 327 327 327 325 323 323 323 323 323 322 321 319 317 316 315 314 314 314 313 313 311 309 309
21 6 31 53 39 41 90 269 259 233 232 224 245 297 308 293 119 54 345 293 267 325 343 352 343 338 354 353 340 349 352 322 307 317 340 351 352 349 343 335 334 334 333 333 333 336 338 337 335 333 332 332 331 332 333 332 331 329 326 325 325 324 325 327 326 325 324 323 323 323 323 323 323 321 320 318 317 316 316 315 315 314 314 313 312 311
12 355 25 69 60 24 78 266 282 273 242 270 282 292 302 332 78 37 306 278 318 345 350 2 350 338 350 352 336 328 315 300 298 309 327 339 341 338 335 333 332 332 331 331 335 338 338 336 334 332 331 331 332 333 334 334 332 329 327 326 326 326 327 328 326 325 324 323 323 323 323 324 324 322 321 320 318 317 317 317 316 315 315 315 315 314
7 346 349 52 47 12 97 206 295 294 235 253 291 297 316 19 12 304 284 306 340 340 351 6 348 335 340 336 321 307 302 303 305 310 323 335 334 330 331 332 330 329 331 333 337 339 338 334 332 332 331 333 335 335 335 335 332 330 330 329 328 329 329 328 327 326 325 324 324 324 325 325 325 324 323 322 321 319 317 319 319 318 317 317 317 317
209 332 324 311 253 352 15 359 320 297 243 250 311 323 2 50 296 296 325 340 336 341 356 354 333 335 341 324 312 308 305 307 312 315 323 330 330 328 329 329 328 327 331 336 338 338 336 333 331 331 332 334 335 335 336 335 332 330 330 329 329 330 330 329 329 328 326 325 325 325 326 326 326 327 325 324 324 321 319 320 321 320 320 320 320 318
198 161 290 270 210 95 25 289 243 240 249 286 327 328 352 4 331 337 326 316 329 1 360 331 319 335 341 321 312 312 309 310 317 320 324 327 327 326 325 325 325 327 331 335 335 334 335 332 330 330 331 333 335 336 337 336 332 329 328 328 330 331 330 330 330 329 327 327 326 326 327 327 327 328 327 327 326 323 322 323 323 322 322 323 321 319
219 192 193 238 236 190 219 243 231 162 221 270 234 218 8 359 350 346 312 304 327 3 347 325 322 329 331 318 309 308 310 313 318 322 326 326 323 324 324 323 325 328 330 331 332 333 334 331 329 328 329 332 335 336 337 337 333 328 327 329 331 332 331 331 330 329 328 328 327 328 329 329 329 329 329 329 328 325 324 325 324 323 323 323 323 320
222 167 136 193 276 268 257 265 303 359 304 283 181 165 147 318 324 348 350 321 332 345 335 329 323 318 318 313 308 308 311 313 316 321 325 323 321 323 324 324 326 330 331 332 333 333 332 331 329 328 329 332 336 337 337 337 334 329 328 330 332 332 332 331 330 329 329 328 328 329 330 330 330 330 330 330 329 328 326 326 325 324 322 323 323 321
261 149 140 195 304 311 293 278 344 317 301 290 143 161 191 157 122 58 66 18 346 347 334 327 321 313 311 312 312 310 310 313 320 324 324 324 323 324 325 328 330 331 331 332 332 332 332 331 331 331 331 332 335 337 337 336 334 332 331 332 333 333 333 332 331 330 329 329 329 331 332 331 330 330 331 331 332 331 330 329 328 326 324 324 324 322
214 179 212 227 223 250 263 275 307 313 304 165 131 133 126 119 113 101 90 46 3 342 323 321 323 317 314 318 319 313 313 319 327 328 325 326 327 326 328 330 330 329 330 331 332 332 332 331 331 332 332 332 334 336 336 335 334 334 334 335 335 335 334 334 333 331 330 330 331 332 332 332 331 330 331 331 332 332 331 331 330 328 325 324 324 322
117 164 208 216 270 270 278 303 329 328 320 145 140 128 110 103 87 87 67 21 351 330 318 319 323 321 319 323 326 322 320 325 333 335 330 327 328 329 329 329 329 328 329 331 332 333 334 333 332 332 332 332 334 335 335 335 335 335 336 337 337 337 336 334 334 333 332 332 333 333 333 332 332 332 332 331 331 332 331 330 329 327 325 325 326 324
111 197 192 66 332 286 280 306 349 324 301 280 252 99 106 100 84 74 20 345 338 335 326 319 320 320 319 325 334 335 329 328 334 334 328 324 326 328 327 328 329 329 330 331 332 334 334 334 333 333 332 333 335 335 335 335 335 336 337 338 338 338 337 336 334 333 333 334 334 334 334 333 333 334 333 332 332 331 330 331 331 330 328 328 328 328
179 188 167 164 238 258 272 278 184 228 276 294 10 108 123 108 93 104 283 311 314 323 325 318 314 319 321 327 337 339 332 327 330 329 324 321 324 327 328 329 329 329 330 332 334 334 334 335 335 334 334 334 334 335 335 335 335 337 338 339 340 339 338 337 335 333 332 334 334 334 334 333 333 334 334 333 334 333 332 331 333 334 336 335 333 333